sat.trackr.live / text

‹ back to catalog

STARLINK-33657

NORAD 63370 · 2025-063H

PAYLOAD ACTIVE UNKNOWN

§ Identity

Operator
Country
US
Launch date
2025-03-26
Launch site
AFWTR
Launch vehicle
Mass (kg)
RCS (m²)

Purposes: comms

External: N2YO · Heavens-Above · Gunter

§ Orbital elements

Epoch: 2026-05-25T04:00:03.998880Z

Period
93.85 min
Inclination
53.1592°
Eccentricity
0.0001429
Mean motion
15.34359274 rev/d
Perigee alt
461.8 km
Apogee alt
463.8 km
Semi-major
6,841.0 km
B*
1.6938e-3
RAAN
54.9775°
Arg perigee
25.6596°
Mean anomaly
212.7312°
Rev number
582

§ Raw data

STARLINK-336571 63370U 25063H   26145.16671295  .00057214  00000+0  16938-2 0  99972 63370  53.1592  54.9775 0001429  25.6596 212.7312 15.34359274  5828

JSON: /api/v1/satellites/63370 · /tle

For live sub-satellite position, see the globe view (requires WebGL).

§ Visibility from observer

Set your observer location to see the next 7 days of passes ≥ 10°. The values pass through the URL so the page stays shareable.

No JS? Fill the form by hand. The geolocation button needs JavaScript.